Location: Écuvilly
(49.6505°N, 2.9206°E)
Time: 17:09:45
(UTC+00:00)

Sich 1 Rocket - Pass Details

Date: 17 November 2025
Orbit: 611 x 646 km, 82.5° (Epoch: 12 December)

Event Time Altitude Azimuth Distance (km) Brightness Sun altitude
Rises 17:46:17 0° 165° (SSE) 2,939 7.0 -16.5°
Reaches altitude 10° 17:48:38 10° 157° (SSE) 2,038 6.1 -16.9°
Maximum altitude 17:52:47 37° 91° (E) 1,014 4.1 -17.6°
Enters shadow 17:53:31 34° 69° (ENE) 1,063 4.2 -17.7°
